Tracking 25949 objects as of 9-Aug-2022
HD Live streaming from Space Station
objects crossing your sky now

STARLINK-4384

Track STARLINK-4384 now!
10-day predictions
STARLINK-4384 is classified as:


NORAD ID: 53218
Int'l Code: 2022-084AF
Perigee: 397.4 km
Apogee: 399.9 km
Inclination: 97.7 °
Period: 92.4 minutes
Semi major axis: 6769 km
RCS: Unknown
Launch date: July 22, 2022
Source: United States (US)
Launch site: AIR FORCE WESTERN TEST RANGE (AFWTR)
aabbcc
Your satellite tracking list
Your tracking list is empty




NASA's NSSDC Master Catalog

Two Line Element Set (TLE):
1 53218U 22084AF  22220.91667824 -.01065744  00000-0 -15269-1 0  9999
2 53218  97.6555 279.9061 0001835  89.7960 106.2659 15.58668456  1305
Source of the keplerian elements: AFSPC